STARLINK-5660 (55335 NORAD) Tracking and Keplerian Element Data

This shows tracking and keplerian element data for the satellite.

Feedback or suggestion? Click here.




ElementValue
Catalog55335
NameSTARLINK-5660
Epoch Orbit1597
Epoch Day126.55678927
Epoch Year2023
RAAN181.5675
Inclination43.0002
Eccentricity0.000143
Argument of Perigee274.2291
Mean Anonmoly85.8388
Mean Motion15.02540377
Decay Rate2.6E-07
L11 55335U 23013E 23126.55678927 .00000026 00000+0 17022-4 0 9996
L22 55335 43.0002 181.5675 0001430 274.2291 85.8388 15.02540377 15976



Live tracking and technical data element details for STARLINK-5660 (NORAD 55335). STARLINK-5660 can be tracked NOW for your location showing map with azimuth and elevation plus other details from your city location.







IsCatalogInMostPopularTable: catalog: 55335, numindb: 1
Update: records affected: 1



GetName: 55335 STARLINK-5660

Hit Count: updated at: Mon, 05 Jun 2023 19:12:25 GMT